Kivalina, AK

12:49 AM AKDT on April 28, 2017 (GMT -0800)
Kivalina

Weather History for PAVL - February, 2014

Change the Weather History Date:

Tuesday, February 4, 2014

  Actual Average (PAWN) Record (PAWN)
Temperature  
Mean Temperature 22 °F -  
Max Temperature 26 °F 3 °F 30 °F (2007)
Min Temperature 19 °F -6 °F -52 °F (2009)
Degree Days  
Heating Degree Days 42    
Moisture  
Dew Point 21 °F    
Average Humidity 85    
Maximum Humidity 96    
Minimum Humidity 68    
Precipitation  
Precipitation 0.00 in - - ()
Sea Level Pressure  
Sea Level Pressure 30.45 in    
Wind  
Wind Speed 18 mph (SSE)    
Max Wind Speed 24 mph    
Max Gust Speed 34 mph    
Visibility 6 miles    
Events Rain , Snow    
Averages and records for this station are not official NWS values.
T = Trace of Precipitation, MM = Missing Value Source: NWS Daily Summary

Daily Weather History Graph

Daily Weather History Graph

Search for Another Location

Airport or City:

Trip Planner

Search our weather history database for the weather conditions in past years. The results will help you decide how hot, cold, wet, or windy it might be!

Date:

Astronomy

Feb. 04, 2014 Rise Set
Actual Time 10:58 AM AKST 5:27 PM AKST
Civil Twilight 9:50 AM AKST 6:34 PM AKST
Nautical Twilight 8:42 AM AKST 7:42 PM AKST
Astronomical Twilight 7:39 AM AKST 8:46 PM AKST
Moon 10:44 AM AKST (2/4) 1:17 AM AKST (2/4)
Length of Visible Light 8h 44m
Length of Day
6h 28m
Waxing Crescent, 30% of the Moon is Illuminated
Feb 4
Waxing Crescent
Feb 6
First Quarter
Feb 14
Full
Feb 22
Last Quarter
Feb 28
New

Hourly Weather History & Observations

Time (AKST) Temp. Windchill Dew Point Humidity Pressure Visibility Wind Dir Wind Speed Gust Speed Precip Events Conditions
12:53 AM 19.0 °F 5.6 °F 10.0 °F 68% 30.44 in 10.0 mi East 13.8 mph - N/A   Clear
1:53 AM 21.0 °F 7.1 °F 12.9 °F 71% 30.44 in 10.0 mi East 16.1 mph - N/A   Clear
3:53 AM 19.9 °F 5.2 °F 14.0 °F 78% 30.43 in 10.0 mi ESE 17.3 mph - N/A   Clear
4:53 AM 23.0 °F 9.6 °F 16.0 °F 74% 30.44 in 10.0 mi SE 16.1 mph - N/A   Overcast
5:53 AM 23.0 °F 7.6 °F 18.0 °F 81% 30.43 in 3.0 mi SE 21.9 mph 34.5 mph 0.00 in Snow Light Snow
6:27 AM 23.0 °F 7.2 °F 17.6 °F 80% 30.44 in 1.8 mi SE 23.0 mph 28.8 mph 0.00 in Snow Light Snow
6:53 AM 24.1 °F 9.0 °F 18.0 °F 77% 30.45 in 2.5 mi SE 21.9 mph 29.9 mph 0.00 in Snow Light Snow
7:00 AM 24.8 °F 10.3 °F 17.6 °F 74% 30.44 in 5.0 mi SE 20.7 mph 27.6 mph 0.00 in   Overcast
7:53 AM 25.0 °F 11.7 °F 17.1 °F 72% 30.45 in 10.0 mi SE 17.3 mph 25.3 mph 0.00 in   Overcast
8:53 AM 25.0 °F 11.3 °F 17.1 °F 72% 30.45 in 10.0 mi SE 18.4 mph - N/A   Overcast
9:53 AM 26.1 °F 12.3 °F 17.1 °F 69% 30.45 in 10.0 mi SE 19.6 mph 26.5 mph N/A   Overcast
10:53 AM 25.0 °F 9.9 °F 17.1 °F 72% 30.46 in 7.0 mi SE 23.0 mph 31.1 mph 0.00 in   Overcast
11:25 AM 24.8 °F 10.7 °F 17.6 °F 74% 30.46 in 10.0 mi SE 19.6 mph - 0.00 in   Overcast
11:53 AM 25.0 °F 10.9 °F 17.1 °F 72% 30.45 in 10.0 mi SE 19.6 mph 27.6 mph 0.00 in   Overcast
12:53 PM 24.1 °F 8.3 °F 19.9 °F 84% 30.44 in 4.0 mi SSE 24.2 mph 33.4 mph 0.00 in   Overcast
1:53 PM 25.0 °F 10.2 °F 21.0 °F 85% 30.44 in 10.0 mi SE 21.9 mph 27.6 mph 0.00 in   Overcast
2:20 PM 24.8 °F 11.1 °F 21.2 °F 86% 30.45 in 7.0 mi SSE 18.4 mph - 0.00 in   Overcast
2:53 PM 25.0 °F 11.7 °F 23.0 °F 92% 30.45 in 5.0 mi SSE 17.3 mph - 0.00 in Rain Light Freezing Rain
3:12 PM 26.6 °F 13.8 °F 23.0 °F 86% 30.44 in 5.0 mi SSE 17.3 mph - 0.00 in   Overcast
3:53 PM 26.1 °F 12.3 °F 23.0 °F 88% 30.44 in 5.0 mi SSE 19.6 mph - 0.00 in   Overcast
4:40 PM 26.6 °F 12.0 °F 23.0 °F 86% 30.44 in 2.0 mi SSE 23.0 mph - 0.00 in   Overcast
4:47 PM 26.6 °F 12.4 °F 23.0 °F 86% 30.44 in 1.8 mi SSE 21.9 mph - 0.00 in Rain Light Freezing Rain
4:53 PM 26.1 °F 11.3 °F 24.1 °F 92% 30.44 in 1.8 mi SSE 23.0 mph - 0.00 in Rain Light Freezing Rain
5:11 PM 26.6 °F 12.0 °F 24.8 °F 93% 30.44 in 1.5 mi SSE 23.0 mph - 0.00 in Snow Light Snow
5:18 PM 26.6 °F 12.4 °F 24.8 °F 93% 30.44 in 1.5 mi SSE 21.9 mph - 0.00 in   Overcast
5:25 PM 26.6 °F 12.4 °F 24.8 °F 93% 30.43 in 2.0 mi SSE 21.9 mph - 0.00 in   Overcast
5:31 PM 26.6 °F 12.4 °F 24.8 °F 93% 30.44 in 2.0 mi SSE 21.9 mph - 0.00 in Rain Light Freezing Rain
5:53 PM 26.1 °F 11.6 °F 24.1 °F 92% 30.44 in 1.8 mi SSE 21.9 mph - 0.00 in Rain Light Freezing Rain
5:58 PM 26.6 °F 12.0 °F 24.8 °F 93% 30.44 in 3.0 mi SSE 23.0 mph - 0.00 in Rain Light Freezing Rain
6:38 PM 26.6 °F 13.1 °F 24.8 °F 93% 30.45 in 10.0 mi SSE 19.6 mph - 0.00 in   Overcast
6:53 PM 26.1 °F 12.7 °F 24.1 °F 92% 30.45 in 9.0 mi South 18.4 mph - 0.00 in   Overcast
7:53 PM 26.1 °F 12.3 °F 25.0 °F 96% 30.46 in 7.0 mi SSE 19.6 mph - 0.00 in   Overcast
8:53 PM 26.1 °F 13.6 °F 25.0 °F 96% 30.47 in 5.0 mi SSE 16.1 mph - 0.00 in   Overcast
9:29 PM 26.6 °F 16.2 °F 24.8 °F 93% 30.48 in 10.0 mi South 11.5 mph - 0.00 in   Overcast
9:53 PM 26.1 °F 15.0 °F 25.0 °F 96% 30.48 in 10.0 mi South 12.7 mph - 0.00 in   Overcast
10:53 PM 26.1 °F 15.0 °F 24.1 °F 92% 30.50 in 10.0 mi SSW 12.7 mph - N/A   Overcast
11:13 PM 26.6 °F 15.7 °F 24.8 °F 93% 30.50 in 10.0 mi SSW 12.7 mph - N/A   Overcast
11:51 PM 26.6 °F 15.2 °F 23.0 °F 86% 30.51 in 10.0 mi SW 13.8 mph - N/A   Overcast
11:53 PM 26.1 °F 15.0 °F 23.0 °F 88% 30.52 in 10.0 mi SW 12.7 mph - N/A   Overcast